Terug naar catalogus

AETHER-2

ActiefCommunicatieSSO
NORAD 58299·PAYLOAD·🇨🇦 Canada

Gelanceerd Nov 11, 2023 vanaf Vandenberg Space Force Base

Loading…

Volgende Passages (komende 24 uur)

TLE

VersSource: Space-Track

Epoch: Sep 14, 2026, 04:19 UTC

1 58299U 23174AV  26257.18007400  .00006688  00000-0  19630-3 0  9992
2 58299  97.3867 340.6275 0006787 176.5969 183.5322 15.35469979158885

Volg AETHER-2 in realtime met AllMySat

Download on the App Store